This is the latest recevied weather packets stored in our database for station/object KD9DOE. If no packets are shown the sender has not sent any weather packets the latest 10 day(s).
| Time | Temp. | Humidity | Pressure | Rain* | Wind** | Luminosity | Snow |
|---|---|---|---|---|---|---|---|
| 1777926124 | 27.22° C | 25% | 996.6 hPa | 0 mm | - | 333 W/m² | - |
| 1777925821 | 26.67° C | 26% | 996.5 hPa | 0 mm | - | 631 W/m² | - |
| 1777925518 | 26.67° C | 26% | 996.7 hPa | 0 mm | - | 426 W/m² | - |
| 1777925215 | 26.11° C | 26% | 996.9 hPa | 0 mm | - | 359 W/m² | - |
| 1777924911 | 26.11° C | 26% | 996.8 hPa | 0 mm | - | 528 W/m² | - |
| 1777924607 | 26.11° C | 26% | 996.8 hPa | 0 mm | - | 352 W/m² | - |
| 1777924304 | 26.11° C | 27% | 996.9 hPa | 0 mm | - | 495 W/m² | - |
| 1777924001 | 26.11° C | 26% | 996.9 hPa | 0 mm | - | 380 W/m² | - |
| 1777923697 | 26.67° C | 26% | 997.2 hPa | 0 mm | - | 595 W/m² | - |
| 1777923393 | 26.67° C | 26% | 997 hPa | 0 mm | - | 480 W/m² | - |
| 1777923091 | 27.22° C | 26% | 997.2 hPa | 0 mm | - | 562 W/m² | - |
| 1777922789 | 26.67° C | 26% | 997.1 hPa | 0 mm | - | 631 W/m² | - |
| 1777922487 | 26.67° C | 26% | 997 hPa | 0 mm | - | 731 W/m² | - |
| 1777922185 | 26.11° C | 27% | 997.3 hPa | 0 mm | - | 696 W/m² | - |
| 1777921881 | 26.67° C | 27% | 997.2 hPa | 0 mm | - | 448 W/m² | - |
| 1777921577 | 26.67° C | 26% | 997.2 hPa | 0 mm | - | 668 W/m² | - |
| 1777921274 | 26.11° C | 27% | 997.5 hPa | 0 mm | - | 616 W/m² | - |
| 1777920971 | 26.11° C | 26% | 997.6 hPa | 0 mm | - | 643 W/m² | - |
| 1777920667 | 26.11° C | 26% | 997.5 hPa | 0 mm | - | 782 W/m² | - |
| 1777920363 | 26.67° C | 26% | 997.6 hPa | 0 mm | - | 712 W/m² | - |
| 1777920058 | 26.11° C | 27% | 997.6 hPa | 0 mm | - | 765 W/m² | - |
| 1777919755 | 26.67° C | 25% | 997.9 hPa | 0 mm | - | 731 W/m² | - |
| 1777919453 | 26.11° C | 26% | 997.7 hPa | 0 mm | - | 795 W/m² | - |
| 1777919150 | 26.11° C | 26% | 997.6 hPa | 0 mm | - | 761 W/m² | - |
| 1777918848 | 26.11° C | 25% | 997.9 hPa | 0 mm | - | 796 W/m² | - |
* Rain latest hour (hover to see other rain measurements)
** Current wind speed in m/s (hover to see current wind gust speed)